Flag for India Weather past 2 weeks in Fatehpur, Uttar Pradesh, India

75 °F


Feels Like: 76 °F
Forecast: 71 / 95 °F
Wind: No wind

Location: Lucknow / Amausi

Current Time: Oct 8, 2015 at 2:55:25 AM

Latest Report: Oct 8, 2015 at 2:00 AM

Visibility: 2 mi

Pressure: 29.77 "Hg

Humidity: 78%

Dew point: 68 °F

Location of FatehpurLocation

Historic Weather in Fatehpur — Graph


Fatehpur temperature yesterday

Maximum temperature yesterday: 97 °F (at 1:00 PM)
Minimum temperature yesterday: 77 °F (at 4:00 AM)
Average temperature yesterday: 88 °F

Past Weeks' High & Low Weather Summary

High102 °F (Sep 29, 9:00 PM)94% (Sep 24, 5:30 AM)29.95 "Hg (Sep 24, 5:30 AM)
Low72 °F (Sep 25, 5:30 AM)29% (Oct 6, 1:00 AM)29.62 "Hg (Sep 24, 2:00 PM)
Average87 °F60%29.77 "Hg
* Reported Sep 23 1:00 AM — Oct 8 1:00 AM, Fatehpur, Weather by CustomWeather, © 2015

Note: Actual official high and low records may vary slightly from our data, if they occured in-between our weather recording intervals... More about our weather records


Fatehpur weather history for previous 24 hours

Time TempWeatherWind HumidityBarometerVisibility
1:00 AM
Thu, Oct 8
77 °FHaze.No wind74%29.77 "Hg2 mi
11:00 PM
Wed, Oct 7
81 °FHaze.No wind70%29.80 "Hg2 mi
10:00 PM82 °FHaze.No wind66%29.80 "Hg2 mi
9:00 PM82 °FHaze.No wind66%29.80 "Hg2 mi
8:30 PM82 °FHaze.No wind70%29.80 "Hg2 mi
8:00 PM84 °FHaze.No wind62%29.80 "Hg2 mi
7:30 PM86 °FHaze.No wind59%29.77 "Hg3 mi
7:00 PM86 °FHaze.No wind59%29.77 "Hg3 mi
6:30 PM88 °FHaze.No wind55%29.77 "Hg3 mi
6:00 PM91 °FScattered clouds.No wind46%29.74 "Hg3 mi
5:30 PM93 °FScattered clouds.2 mph41%29.74 "Hg3 mi
5:00 PM95 °FScattered clouds.2 mph41%29.74 "Hg3 mi
4:30 PM95 °FScattered clouds.2 mph47%29.74 "Hg3 mi
3:30 PM97 °FScattered clouds.3 mph42%29.74 "Hg3 mi
3:00 PM97 °FScattered clouds.2 mph42%29.74 "Hg3 mi
2:30 PM97 °FScattered clouds.2 mph44%29.74 "Hg3 mi
2:00 PM97 °FScattered clouds.3 mph44%29.77 "Hg3 mi
1:30 PM97 °FScattered clouds.5 mph42%29.77 "Hg3 mi
1:00 PM97 °FScattered clouds.5 mph42%29.77 "Hg3 mi
12:30 PM95 °FScattered clouds.6 mph47%29.80 "Hg3 mi
12:00 PM95 °FScattered clouds.3 mph47%29.80 "Hg3 mi
11:30 AM93 °FScattered clouds.5 mph49%29.83 "Hg2 mi
11:00 AM93 °FScattered clouds.6 mph49%29.83 "Hg2 mi
10:30 AM93 °FHaze.No wind53%29.83 "Hg2 mi
10:00 AM91 °FHaze.No wind56%29.83 "Hg2 mi
9:30 AM90 °FHaze.No wind59%29.83 "Hg2 mi
9:00 AM86 °FHaze.No wind66%29.83 "Hg2 mi
8:30 AM82 °FFog.No wind74%29.83 "Hg2 mi
7:30 AM79 °FFog.No wind89%29.80 "Hg1 mi
7:00 AM77 °FFog.No wind89%29.80 "Hg1 mi
6:30 AM77 °FFog.No wind83%29.80 "Hg1 mi
5:00 AM77 °FHaze.No wind83%29.77 "Hg2 mi
4:00 AM77 °FHaze.No wind83%29.77 "Hg2 mi
3:00 AM79 °FHaze.No wind79%29.77 "Hg2 mi
2:00 AM79 °FHaze.No wind84%29.77 "Hg2 mi
Weather by CustomWeather, © 2015

See weather overviewHow to use our weather pages